Fort Atkinson, Wisconsin, United States (53538)
Lat: 42.93N, Lon: 88.84W
Wx Zone: WIZ064
Local Info
Past Weather Observations for Today

NOTE: This archive is for the closest National Weather Service station to Fort Atkinson. Information may differ from the station used for current weather conditions.

Click here for Long-term Archive

Time Weather Temperature Dewpoint Humidity Pressure Winds Precip Visibility
13:35
Overcast
Light Snow
32°F / 0°C 32°F / 0°C 100% 29.27 in
(991 mb)
SSW 15 mph
(SSW 24 kph)
- 1SM
13:15
Overcast
Light Snow
32°F / 0°C 32°F / 0°C 100% 29.27 in
(991 mb)
SSW 12.7 mph
(SSW 20 kph)
- 1SM
12:55
Overcast
Light Snow
32°F / 0°C 32°F / 0°C 100% 29.24 in
(990 mb)
SSW 12.7 mph
(SSW 20 kph)
0.01 in
(0.25 mm)
3/4SM
12:35
Overcast
Snow
32°F / 0°C 32°F / 0°C 100% 29.24 in
(990 mb)
SSW 10.4 mph
(SSW 17 kph)
- 1/2SM
12:15
Overcast
Snow
32°F / 0°C 32°F / 0°C 100% 29.21 in
(989 mb)
SSW 10.4 mph
(SSW 17 kph)
- 1/2SM
11:55
Overcast
Light Snow
32°F / 0°C 32°F / 0°C 100% 29.18 in
(988 mb)
SSW 12.7 mph
(SSW 20 kph)
- 1 1/2SM
11:35
Overcast
Rain
36°F / 2°C 36°F / 2°C 100% 29.18 in
(988 mb)
SSW 16.1 mph
(SSW 26 kph)
- 2SM
11:15
Overcast
Light Rain
36°F / 2°C 36°F / 2°C 100% 29.18 in
(988 mb)
W 13.8 mph
(W 22 kph)
- 1 1/2SM
10:55
Overcast
Drizzle
36°F / 2°C 36°F / 2°C 100% 29.15 in
(987 mb)
SSW 11.5 mph
(SSW 19 kph)
- 1 1/2SM
10:35
Overcast
Drizzle
37°F / 3°C 37°F / 3°C 100% 29.15 in
(987 mb)
W 8.1 mph
(W 13 kph)
- 1 1/2SM
10:15
Overcast
Drizzle
37°F / 3°C 37°F / 3°C 100% 29.15 in
(987 mb)
SSW 13.8 mph
(SSW 22 kph)
- 1 1/4SM
09:55
Overcast
Fog And Mist
37°F / 3°C 37°F / 3°C 100% 29.12 in
(986 mb)
W 9.2 mph
(W 15 kph)
- 2SM
09:35
Overcast
Fog And Mist
37°F / 3°C 37°F / 3°C 100% 29.12 in
(986 mb)
W 12.7 mph
(W 20 kph)
- 2 1/2SM
09:15
Overcast
Fog And Mist
37°F / 3°C 37°F / 3°C 100% 29.12 in
(986 mb)
W 11.5 mph
(W 19 kph)
- 2 1/2SM
08:55
Overcast
Fog And Mist
37°F / 3°C 37°F / 3°C 100% 29.09 in
(985 mb)
W 8.1 mph
(W 13 kph)
- 4SM
08:35
Overcast
Fog And Mist
39°F / 4°C 39°F / 4°C 100% 29.09 in
(985 mb)
WNW 11.5 mph
(WNW 19 kph)
- 4SM
08:15
Overcast
Fog And Mist
39°F / 4°C 39°F / 4°C 100% 29.09 in
(985 mb)
W 5.8 mph
(W 9 kph)
- 4SM
07:55
Overcast
Fog And Mist
39°F / 4°C 39°F / 4°C 100% 29.09 in
(985 mb)
W 6.9 mph
(W 11 kph)
- 3SM
07:35
Overcast
Fog And Mist
39°F / 4°C 39°F / 4°C 100% 29.09 in
(985 mb)
WNW 8.1 mph
(WNW 13 kph)
- 5SM
07:15
Overcast
Fog And Mist
39°F / 4°C 39°F / 4°C 100% 29.06 in
(984 mb)
NW 10.4 mph
(NW 17 kph)
- 4SM
06:55
Overcast
Drizzle
41°F / 5°C 41°F / 5°C 100% 29.06 in
(984 mb)
NW 10.4 mph
(NW 17 kph)
- 3SM
06:35
Overcast
Drizzle
41°F / 5°C 41°F / 5°C 100% 29.06 in
(984 mb)
WNW 10.4 mph
(WNW 17 kph)
- 3SM
06:15
Overcast
Drizzle
43°F / 6°C 43°F / 6°C 100% 29.06 in
(984 mb)
WNW 11.5 mph
(WNW 19 kph)
- 3SM
05:55
Overcast
Drizzle
43°F / 6°C 43°F / 6°C 100% 29.06 in
(984 mb)
W 8.1 mph
(W 13 kph)
0.01 in
(0.25 mm)
2SM
05:35
Overcast
Drizzle
43°F / 6°C 43°F / 6°C 100% 29.06 in
(984 mb)
SSW 3.5 mph
(SSW 6 kph)
0.01 in
(0.25 mm)
1 3/4SM
05:15
Overcast
Light Rain
43°F / 6°C 43°F / 6°C 100% 29.03 in
(983 mb)
SW 3.5 mph
(SW 6 kph)
- 3/4SM
04:55
Overcast
Fog
43°F / 6°C 43°F / 6°C 100% 29.03 in
(983 mb)
Calm - 1/2SM
04:35
Overcast
Light Rain
43°F / 6°C 43°F / 6°C 100% 29.03 in
(983 mb)
Calm - 1/2SM
04:15
Overcast
Fog And Mist
43°F / 6°C 43°F / 6°C 100% 29.03 in
(983 mb)
Calm - 3/4SM
03:55
Overcast
Fog And Mist
43°F / 6°C 43°F / 6°C 100% 29.03 in
(983 mb)
Calm - 3SM
03:35
Overcast
Fog And Mist
43°F / 6°C 43°F / 6°C 100% 29.03 in
(983 mb)
Calm - 3SM
03:15
Overcast
Fog And Mist
43°F / 6°C 43°F / 6°C 100% 29.03 in
(983 mb)
NW 3.5 mph
(NW 6 kph)
- 3SM
02:55
Overcast
Fog And Mist
45°F / 7°C 45°F / 7°C 100% 29.06 in
(984 mb)
NW 3.5 mph
(NW 6 kph)
- 3SM
02:35
Overcast
Fog And Mist
45°F / 7°C 45°F / 7°C 100% 29.06 in
(984 mb)
NW 3.5 mph
(NW 6 kph)
- 2 1/2SM
02:15
Overcast
Fog And Mist
45°F / 7°C 45°F / 7°C 100% 29.06 in
(984 mb)
Calm - 2SM
01:55
Overcast
Drizzle
45°F / 7°C 45°F / 7°C 100% 29.06 in
(984 mb)
Calm - 2SM
01:35
Overcast
Drizzle
45°F / 7°C 45°F / 7°C 100% 29.06 in
(984 mb)
NW 3.5 mph
(NW 6 kph)
- 1 3/4SM
01:15
Overcast
Drizzle
45°F / 7°C 45°F / 7°C 100% 29.06 in
(984 mb)
NW 3.5 mph
(NW 6 kph)
- 1 1/4SM
00:55
Overcast
Drizzle
45°F / 7°C 45°F / 7°C 100% 29.06 in
(984 mb)
NNW 3.5 mph
(NNW 6 kph)
- 3/4SM
00:30
Overcast
Fog And Mist
45°F / 7°C 45°F / 7°C 100% 29.09 in
(985 mb)
Calm - 1SM
00:15
Overcast
Fog And Mist
45°F / 7°C 45°F / 7°C 100% 29.09 in
(985 mb)
Calm - 3/4SM
Time Weather Temperature Dewpoint Humidity Pressure Winds Precip Visibility


Weather for websites

WeatherForYou.com, LLC is not responsible for any damages or problems caused by this service. Current weather conditions are obtained from the closest station including government and personal stations which may have varying degrees of accuracy. Weather forecasts are derived from the NOAA NDFD. Like all things, this site belongs to Jesus Christ... He just trusts me to maintain it. If you have any questions or comments email webmaster@weatherforyou.com

Copyright © 2014, WeatherForYou.com LLC. All rights reserved.